(398010) = 2009 CS13

Discovered at Moletai on 2009-02-02 by K. Cernis and J. Zdanavicius.

Orbit

Orbit type: Main Belt

Note: WebGL enabled browser required.

epoch2023-02-25.0
epoch JD2460000.5
perihelion date2022-10-22.08592
perihelion JD2459874.58592
argument of perihelion (°)92.68334
ascending node (°)115.88080
inclination (°)15.89795
eccentricity0.1931268
perihelion distance (AU)2.1518194
Tisserand w.r.t. Jupiter3.3
ΔV w.r.t. Earth (km/sec)10.4
semimajor axis (AU)2.6668620
mean anomaly (°)28.49557
mean daily motion (°/day)0.22630960
aphelion distance (AU)3.182
period (years)4.36
P-vector [x]-0.84390752
P-vector [y]-0.53222724
P-vector [z]0.06748529
Q-vector [x]0.47653111
Q-vector [y]-0.80142441
Q-vector [z]-0.36143744
absolute magnitude16.78
phase slope0.15
uncertainty0
referenceMPO 745323
observations used232
oppositions11
arc length (days)6669
first opposition used2005
last opposition used2023
residual rms (arc-secs)0.73
perturbers coarse indicatorM-v
perturbers precise indicator003Ek
first observation date used2005-03-15.0
last observation date used2023-06-18.0
computer nameMPCLINUX
JD of orbit computation2456937.391299
perihelion JD uncertainty (days)1.7477E-04
argument of perihelion uncertainty (°)5.5676E-05
ascending node uncertainty (°)2.5295E-05
inclination uncertainty (°)7.4211E-06
eccentricity uncertainty 1.0190E-07
perihelion distance uncertainty (AU)2.5476E-07
Minimum Orbit Intersection Distances (in AU)
for orbit epoch: 2460000.5, reference: E2023-M50
Mercury1.73063
Venus1.45869
Earth1.21626
Mars0.6816
Jupiter2.04162
Saturn6.12304
Uranus16.0829
Neptune26.7784

Observations

226 total observations over interval: 2005 03 15.41646 – 2023 06 18.500976
These data are available for download (format description).

Date (UT) J2000 RA J2000 Dec Magn Location Ref
2005 03 15.41646 13 36 12.24 +18 14 51.8 18.6 R 703 – Catalina Sky Survey MPS 348091
2005 03 15.43270 13 36 11.80 +18 15 02.1 19.1 R 703 – Catalina Sky Survey MPS 348091
2005 03 15.43975 13 36 11.61 +18 15 07.2 19.2 R 703 – Catalina Sky Survey MPS 348091
2005 03 15.44674 13 36 11.47 +18 15 11.4 19.2 R 703 – Catalina Sky Survey MPS 348091
2005 04 02.38441 13 25 49.45 +21 16 23.8 18.9 R 703 – Catalina Sky Survey MPS 348091
2005 04 02.39338 13 25 49.02 +21 16 26.9 18.8 R 703 – Catalina Sky Survey MPS 348091
2005 04 02.40234 13 25 48.53 +21 16 31.8 18.7 R 703 – Catalina Sky Survey MPS 348091
2005 04 02.41132 13 25 47.94 +21 16 39.8 17.4 R 703 – Catalina Sky Survey MPS 348091
2009 01 01.46512 09 37 22.98 +18 33 15.8 19.9 V G96 – Mt. Lemmon Survey MPS 348091
2009 01 01.47282 09 37 22.83 +18 33 20.8 20.5 V G96 – Mt. Lemmon Survey MPS 348091
2009 01 01.48052 09 37 22.72 +18 33 24.9 20.3 V G96 – Mt. Lemmon Survey MPS 348091
2009 02 02.04039 09 18 26.17 +24 23 40.8 19.6 R 152 – Moletai Astronomical Observatory MPS 276749
2009 02 02.06307 09 18 24.93 +24 23 56.3 19.3 R 152 – Moletai Astronomical Observatory MPS 276749
2009 02 02.08589 09 18 23.68 +24 24 12.2 19.2 R 152 – Moletai Astronomical Observatory MPS 276749
2009 02 04.22375 09 16 27.01 +24 49 15.6 19.7 V 703 – Catalina Sky Survey MPS 276749
2009 02 04.23354 09 16 26.54 +24 49 22.5 21.0 V 703 – Catalina Sky Survey MPS 276749
2009 02 04.24323 09 16 26.00 +24 49 29.4 19.5 V 703 – Catalina Sky Survey MPS 276749
2009 02 04.25301 09 16 25.35 +24 49 35.9 21.1 V 703 – Catalina Sky Survey MPS 276749
2009 02 25.22944 08 57 58.06 +28 17 21.3 20.6 V 703 – Catalina Sky Survey MPS 348091
2009 02 25.23468 08 57 57.92 +28 17 26.0 19.3 V 703 – Catalina Sky Survey MPS 348091
2009 02 25.23947 08 57 57.70 +28 17 27.3 19.4 V 703 – Catalina Sky Survey MPS 348091
2009 02 25.24437 08 57 57.60 +28 17 29.0 20.9 V 703 – Catalina Sky Survey MPS 348091
2010 07 05.33199 20 15 34.02 -18 54 17.4 20.3 V G96 – Mt. Lemmon Survey MPS 357509
2010 07 05.33856 20 15 33.69 -18 54 21.1 19.9 V G96 – Mt. Lemmon Survey MPS 357509
2010 07 05.34522 20 15 33.37 -18 54 24.8 20.1 V G96 – Mt. Lemmon Survey MPS 357509
2010 07 05.35181 20 15 33.04 -18 54 28.4 19.9 V G96 – Mt. Lemmon Survey MPS 357509
2013 01 18.40830 06 05 49.944 +17 03 06.12 20.7 r F51 – Pan-STARRS 1, Haleakala MPS 452341
2013 01 18.42045 06 05 49.318 +17 03 10.82 20.5 r F51 – Pan-STARRS 1, Haleakala MPS 452341
2014 03 30.42641 16 54 47.99 -01 26 07.7 20.4 r G45 – Space Surveillance Telescope, Atom Site MPS 536485
2014 03 30.44922 16 54 48.60 -01 26 02.1 20.2 r G45 – Space Surveillance Telescope, Atom Site MPS 536485
2014 03 30.46061 16 54 49.01 -01 25 58.5 20.2 r G45 – Space Surveillance Telescope, Atom Site MPS 536485
2014 03 30.47200 16 54 49.47 -01 25 56.5 20.3 r G45 – Space Surveillance Telescope, Atom Site MPS 536485
2014 04 30.49942 16 56 54.816 +00 26 38.58 19.8 w F51 – Pan-STARRS 1, Haleakala MPS 512531
2014 04 30.51171 16 56 54.469 +00 26 40.25 19.8 w F51 – Pan-STARRS 1, Haleakala MPS 512531
2014 04 30.52405 16 56 54.125 +00 26 41.83 19.8 w F51 – Pan-STARRS 1, Haleakala MPS 512531
2014 04 30.53638 16 56 53.776 +00 26 43.35 19.8 w F51 – Pan-STARRS 1, Haleakala MPS 512531
2014 05 30.14785 16 34 31.68 -00 04 20.0 19.7 R J04 – ESA Optical Ground Station, Tenerife MPS 518834
2014 05 30.15942 16 34 31.02 -00 04 23.1 19.7 R J04 – ESA Optical Ground Station, Tenerife MPS 518834
2014 05 30.17100 16 34 30.41 -00 04 25.7 19.7 R J04 – ESA Optical Ground Station, Tenerife MPS 518834
2014 05 30.18257 16 34 29.69 -00 04 31.3 19.0 R J04 – ESA Optical Ground Station, Tenerife MPS 518834
2014 06 08.31132 16 26 08.38 -00 57 50.4 19.9 V 691 – Steward Observatory, Kitt Peak-Spacewatch MPS 518834
2014 06 08.32910 16 26 07.39 -00 57 57.6 19.8 V 691 – Steward Observatory, Kitt Peak-Spacewatch MPS 518834
2014 06 08.34686 16 26 06.37 -00 58 05.4 19.6 V 691 – Steward Observatory, Kitt Peak-Spacewatch MPS 518834
2014 06 16.41630 16 19 29.491 -02 01 01.77 19.5 r F51 – Pan-STARRS 1, Haleakala MPS 519983
2014 06 16.42783 16 19 28.943 -02 01 07.64 19.6 r F51 – Pan-STARRS 1, Haleakala MPS 519983
2014 06 16.45100 16 19 27.836 -02 01 19.57 19.7 r F51 – Pan-STARRS 1, Haleakala MPS 519983
2014 06 20.30073 16 16 43.59 -02 35 46.9   691 – Steward Observatory, Kitt Peak-Spacewatch MPS 519983
2014 06 20.31928 16 16 42.81 -02 35 57.2   691 – Steward Observatory, Kitt Peak-Spacewatch MPS 519983
2014 06 20.33783 16 16 42.02 -02 36 06.8   691 – Steward Observatory, Kitt Peak-Spacewatch MPS 519983
2014 06 22.25360 16 15 27.81 -02 54 11.4   691 – Steward Observatory, Kitt Peak-Spacewatch MPS 521308
2014 06 22.26690 16 15 27.29 -02 54 18.9   691 – Steward Observatory, Kitt Peak-Spacewatch MPS 521308
2014 06 22.28021 16 15 26.75 -02 54 26.4   691 – Steward Observatory, Kitt Peak-Spacewatch MPS 521308
2014 06 22.38490 16 15 22.894 -02 55 25.87 19.6 w F51 – Pan-STARRS 1, Haleakala MPS 521308
2014 06 22.39645 16 15 22.436 -02 55 32.59 19.8 w F51 – Pan-STARRS 1, Haleakala MPS 521308
2014 06 22.40796 16 15 21.986 -02 55 39.14 19.6 w F51 – Pan-STARRS 1, Haleakala MPS 521308
2014 06 22.41949 16 15 21.522 -02 55 45.75 19.8 w F51 – Pan-STARRS 1, Haleakala MPS 521308
2014 06 30.37083 16 11 13.889 -04 16 15.16 19.8 w F51 – Pan-STARRS 1, Haleakala MPS 522213
2014 06 30.38223 16 11 13.586 -04 16 22.41 20.0 w F51 – Pan-STARRS 1, Haleakala MPS 522213
2014 06 30.39363 16 11 13.273 -04 16 29.74 20.0 w F51 – Pan-STARRS 1, Haleakala MPS 522213
2014 07 28.30959 16 10 53.076 -09 31 20.78 20.6 w F51 – Pan-STARRS 1, Haleakala MPS 525480
2014 07 28.32175 16 10 53.322 -09 31 29.25 20.5 w F51 – Pan-STARRS 1, Haleakala MPS 525480
2014 07 28.33395 16 10 53.590 -09 31 37.55 20.6 w F51 – Pan-STARRS 1, Haleakala MPS 525480
2014 07 28.34613 16 10 53.842 -09 31 45.94 20.6 w F51 – Pan-STARRS 1, Haleakala MPS 525480
2014 08 14.25741 16 20 52.089 -12 39 17.78 21.0 w F51 – Pan-STARRS 1, Haleakala MPS 527027
2014 08 14.26970 16 20 52.647 -12 39 25.58 21.0 w F51 – Pan-STARRS 1, Haleakala MPS 527027
2014 08 14.28201 16 20 53.206 -12 39 33.37 20.8 w F51 – Pan-STARRS 1, Haleakala MPS 527027
2014 08 14.29438 16 20 53.767 -12 39 41.43 20.9 w F51 – Pan-STARRS 1, Haleakala MPS 527027
2016 10 29.40172 04 57 34.60 +04 44 28.0 22.0 V G96 – Mt. Lemmon Survey MPS 742027
2016 10 29.40999 04 57 34.26 +04 44 26.7 21.9 V G96 – Mt. Lemmon Survey MPS 742027
2016 10 29.41434 04 57 34.14 +04 44 25.4 21.3 V G96 – Mt. Lemmon Survey MPS 742027
2016 10 29.41862 04 57 33.99 +04 44 25.4 21.6 V G96 – Mt. Lemmon Survey MPS 742027
2016 11 30.26254 04 32 32.17 +04 00 24.7 20.9 V G96 – Mt. Lemmon Survey MPS 749400
2016 11 30.26683 04 32 31.88 +04 00 26.3 21.0 V G96 – Mt. Lemmon Survey MPS 749400
2016 11 30.27111 04 32 31.65 +04 00 25.6 20.6 V G96 – Mt. Lemmon Survey MPS 749400
2016 11 30.27719 04 32 31.29 +04 00 25.9 21.8 V G96 – Mt. Lemmon Survey MPS 749400
2017 01 20.26605 03 59 16.481 +07 22 47.82 21.7 w F51 – Pan-STARRS 1, Haleakala MPS 762010
2017 01 20.27882 03 59 16.371 +07 22 53.14 21.5 w F51 – Pan-STARRS 1, Haleakala MPS 762010
2017 01 20.30229 03 59 16.177 +07 23 02.12 21.8 w F51 – Pan-STARRS 1, Haleakala MPS 762010
2017 01 24.23753 03 59 00.736 +07 49 34.36 21.7 w F51 – Pan-STARRS 1, Haleakala MPS 762010
2017 01 24.26033 03 59 00.679 +07 49 43.56 21.9 w F51 – Pan-STARRS 1, Haleakala MPS 762010
2017 01 24.27181 03 59 00.636 +07 49 48.30 21.6 w F51 – Pan-STARRS 1, Haleakala MPS 762010
2018 01 14.49249 12 29 09.69 +12 23 56.0 20.9 G G96 – Mt. Lemmon Survey MPS 861526
2018 01 14.49765 12 29 09.97 +12 23 57.9 20.9 G G96 – Mt. Lemmon Survey MPS 861526
2018 01 14.50282 12 29 10.23 +12 23 59.7 20.6 G G96 – Mt. Lemmon Survey MPS 861526
2018 01 14.50800 12 29 10.50 +12 24 01.2 20.6 G G96 – Mt. Lemmon Survey MPS 861526
2018 01 24.42434 12 37 12.83 +13 31 02.6 20.5 G G96 – Mt. Lemmon Survey MPS 864693
2018 01 24.42950 12 37 13.05 +13 31 05.0 20.4 G G96 – Mt. Lemmon Survey MPS 864693
2018 01 24.43466 12 37 13.27 +13 31 07.6 20.8 G G96 – Mt. Lemmon Survey MPS 864693
2018 01 24.43982 12 37 13.45 +13 31 10.0 20.6 G G96 – Mt. Lemmon Survey MPS 864693
2018 02 11.15210 12 45 30.69 +16 26 24.4 20.0   J43 – Oukaimeden Observatory, Marrakech MPS 869951
